GW0207 Weather Reports


Display with metric or nautical units.
time (UTC)temp
F
wind
direction
speed
MPH
gust
MPH
rain 1hr
in
rain 24hr
in
rain mn
in
humidity
%
barometer
mb
20260505015431 67 166 0.0 1.0 0.00 0.00 0.00 54 1013.7
20260505014931 67 114 0.0 0.0 0.00 0.00 0.00 54 1013.7
20260505014431 67 52 0.0 0.0 0.00 0.00 0.00 54 1013.5
20260505013931 67 52 0.0 0.0 0.00 0.00 0.00 54 1013.5
20260505013649 67 96 0.0 0.0 0.00 0.00 0.00 54 1013.5
20260505012931 67 91 0.0 0.0 0.00 0.00 0.00 54 1013.4
20260505012431 67 55 0.0 0.0 0.00 0.00 0.00 55 1013.4
20260505011931 67 98 0.0 0.0 0.00 0.00 0.00 56 1013.3
20260505011433 66 51 0.0 0.0 0.00 0.00 0.00 55 1013.3
20260505010932 67 49 0.0 0.0 0.00 0.00 0.00 55 1013.2
20260505010431 67 49 0.0 0.0 0.00 0.00 0.00 54 1013.1
20260505005930 67 49 0.0 0.0 0.00 0.00 0.00 54 1013.1
20260505005430 67 49 0.0 0.0 0.00 0.00 0.00 54 1013.1
20260505005207 68 49 0.0 0.0 0.00 0.00 0.00 53 1013.0
20260505004431 68 49 0.0 0.0 0.00 0.00 0.00 52 1012.9
20260505003931 69 49 0.0 0.0 0.00 0.00 0.00 51 1012.9
20260505003657 70 49 0.0 0.0 0.00 0.00 0.00 50 1012.9
20260505003414 70 49 0.0 0.0 0.00 0.00 0.00 48 1012.7
20260505002431 71 49 0.0 0.0 0.00 0.00 0.00 48 1012.8
20260505001931 71 148 0.0 0.0 0.00 0.00 0.00 47 1012.8
20260505001431 72 145 0.0 0.0 0.00 0.00 0.00 45 1012.7
20260505000932 72 176 0.0 2.0 0.00 0.00 0.00 45 1012.6
20260505000431 72 223 0.0 2.0 0.00 0.00 0.00 44 1012.5
20260504235932 72 258 0.0 1.0 0.00 0.00 0.00 44 1012.6
20260504235431 72 108 0.0 1.0 0.00 0.00 0.00 44 1012.5
20260504234930 72 192 0.0 0.0 0.00 0.00 0.00 45 1012.4
20260504234432 73 278 0.0 1.0 0.00 0.00 0.00 42 1012.4
20260504233931 74 277 0.0 1.0 0.00 0.00 0.00 42 1012.3
20260504233425 74 74 0.0 0.0 0.00 0.00 0.00 41 1012.2
20260504232920 75 79 0.0 0.0 0.00 0.00 0.00 40 1012.1
20260504232413 75 240 0.0 0.0 0.00 0.00 0.00 40 1012.1
20260504231907 76 108 0.0 0.0 0.00 0.00 0.00 40 1012.0
20260504231405 76 104 0.0 1.0 0.00 0.00 0.00 40 1012.1
20260504230906 76 53 0.0 1.0 0.00 0.00 0.00 40 1012.1
20260504230403 77 57 0.0 3.0 0.00 0.00 0.00 37 1012.0
20260504225903 77 252 0.0 3.0 0.00 0.00 0.00 37 1012.1
20260504225622 77 53 0.0 2.0 0.00 0.00 0.00 38 1012.1
20260504225122 77 52 0.0 2.0 0.00 0.00 0.00 37 1012.1
20260504224401 77 58 0.0 2.0 0.00 0.00 0.00 37 1012.1
20260504223901 78 50 0.0 2.0 0.00 0.00 0.00 37 1012.1
20260504223401 78 52 0.0 3.0 0.00 0.00 0.00 38 1012.1
20260504222902 78 60 0.0 3.0 0.00 0.00 0.00 37 1012.1
20260504222400 78 92 0.0 1.0 0.00 0.00 0.00 40 1012.1
20260504222122 78 38 0.0 1.0 0.00 0.00 0.00 39 1012.1
20260504221401 78 45 0.0 1.0 0.00 0.00 0.00 37 1012.1
20260504220901 78 60 0.0 1.0 0.00 0.00 0.00 37 1012.1
20260504220401 78 72 0.0 1.0 0.00 0.00 0.00 38 1012.0
20260504220124 78 260 0.0 1.0 0.00 0.00 0.00 38 1012.1
20260504215401 78 62 0.0 2.0 0.00 0.00 0.00 37 1012.1
20260504214903 78 48 0.0 3.0 0.00 0.00 0.00 37 1012.1
20260504214400 78 42 0.0 3.0 0.00 0.00 0.00 36 1012.1
20260504213901 79 259 0.0 2.0 0.00 0.00 0.00 38 1012.2
20260504213401 79 149 0.0 2.0 0.00 0.00 0.00 37 1012.2
20260504212901 79 23 0.0 2.0 0.00 0.00 0.00 37 1012.2
20260504212400 79 47 0.0 2.0 0.00 0.00 0.00 37 1012.2
20260504211901 79 37 0.0 2.0 0.00 0.00 0.00 36 1012.2
20260504211401 79 48 0.0 1.0 0.00 0.00 0.00 37 1012.2
20260504210901 79 17 0.0 1.0 0.00 0.00 0.00 37 1012.2
20260504210623 79 121 0.0 3.0 0.00 0.00 0.00 37 1012.2
20260504205901 79 29 0.0 3.0 0.00 0.00 0.00 35 1012.3
20260504205401 80 38 0.0 3.0 0.00 0.00 0.00 37 1012.4
20260504204901 80 26 0.0 2.0 0.00 0.00 0.00 35 1012.4
20260504204840 80 50 0.0 3.0 0.00 0.00 0.00 37 1012.4
20260504203900 80 33 0.0 4.0 0.00 0.00 0.00 35 1012.4
20260504203401 80 43 0.0 4.0 0.00 0.00 0.00 35 1012.6
20260504202901 80 50 0.0 4.0 0.00 0.00 0.00 36 1012.5
20260504202401 80 117 0.0 3.0 0.00 0.00 0.00 36 1012.6
20260504201902 80 47 0.0 3.0 0.00 0.00 0.00 35 1012.7
20260504201401 81 217 0.0 3.0 0.00 0.00 0.00 36 1012.7
20260504200902 80 254 0.0 3.0 0.00 0.00 0.00 37 1012.7
20260504200629 80 297 0.0 2.0 0.00 0.00 0.00 38 1012.7
20260504195903 80 64 0.0 2.0 0.00 0.00 0.00 37 1012.7
20260504195403 79 53 0.0 1.0 0.00 0.00 0.00 37 1012.8
20260504195130 79 307 0.0 5.0 0.00 0.00 0.00 38 1012.9
20260504194403 79 46 0.0 5.0 0.00 0.00 0.00 37 1013.0
20260504194124 79 91 0.0 4.0 0.00 0.00 0.00 36 1013.2
20260504193850 79 16 0.0 4.0 0.00 0.00 0.00 39 1013.3
20260504192903 79 12 0.0 3.0 0.00 0.00 0.00 37 1013.3
20260504192403 79 87 0.0 3.0 0.00 0.00 0.00 39 1013.3
20260504191903 78 96 0.0 1.0 0.00 0.00 0.00 39 1013.2
20260504191403 78 140 0.0 3.0 0.00 0.00 0.00 38 1013.4
20260504190903 78 34 0.0 3.0 0.00 0.00 0.00 36 1013.4
20260504190403 78 5 0.0 2.0 0.00 0.00 0.00 38 1013.5
20260504185901 78 66 0.0 2.0 0.00 0.00 0.00 37 1013.6
20260504185401 78 49 1.0 4.0 0.00 0.00 0.00 38 1013.7
20260504185120 78 20 1.0 4.0 0.00 0.00 0.00 37 1013.8
20260504184400 78 43 0.0 4.0 0.00 0.00 0.00 38 1013.6
20260504183901 78 359 0.0 4.0 0.00 0.00 0.00 37 1013.7
20260504183627 78 60 0.0 4.0 0.00 0.00 0.00 37 1013.7
20260504182901 77 40 0.0 4.0 0.00 0.00 0.00 37 1013.8
20260504182401 77 250 0.0 4.0 0.00 0.00 0.00 38 1014.0
20260504181900 77 251 0.0 4.0 0.00 0.00 0.00 38 1014.1
20260504181404 77 43 0.0 4.0 0.00 0.00 0.00 36 1014.2
20260504180903 77 50 0.0 1.0 0.00 0.00 0.00 38 1014.1
20260504180403 77 358 0.0 2.0 0.00 0.00 0.00 39 1014.2
20260504175903 77 64 0.0 2.0 0.00 0.00 0.00 39 1014.2
20260504175404 77 53 0.0 3.0 0.00 0.00 0.00 38 1014.2
20260504175129 77 152 0.0 3.0 0.00 0.00 0.00 38 1014.2
20260504174403 76 93 0.0 3.0 0.00 0.00 0.00 38 1014.3
20260504174125 76 12 0.0 4.0 0.00 0.00 0.00 38 1014.4
20260504173403 76 46 0.0 4.0 0.00 0.00 0.00 38 1014.5
20260504172905 76 299 0.0 2.0 0.00 0.00 0.00 40 1014.4
20260504172627 76 21 0.0 2.0 0.00 0.00 0.00 40 1014.6
20260504172125 76 332 0.0 2.0 0.00 0.00 0.00 40 1014.7
20260504171622 76 348 0.0 2.0 0.00 0.00 0.00 40 1014.7
20260504170903 76 35 0.0 1.0 0.00 0.00 0.00 42 1014.8
20260504170624 75 30 0.0 1.0 0.00 0.00 0.00 45 1014.9
20260504160341 73 36 0.0 1.0 0.00 0.00 0.00 45 1015.6
20260504150829 69 145 0.0 3.0 0.00 0.00 0.00 55 1015.8
20260504150328 69 83 0.0 2.0 0.00 0.00 0.00 58 1015.8
20260504141329 66 343 0.0 3.0 0.00 0.00 0.00 66 1016.2
20260504140829 66 107 0.0 3.0 0.00 0.00 0.00 67 1016.3
20260504140329 65 114 0.0 1.0 0.00 0.00 0.00 70 1016.2
20260504130331 57 31 0.0 0.0 0.00 0.00 0.00 80 1016.6
20260504110247 45 256 0.0 0.0 0.00 0.00 0.00 92 1016.7
20260504100451 45 247 0.0 0.0 0.00 0.00 0.00 89 1016.3
20260504081728 46 246 0.0 0.0 0.00 0.00 0.00 82 1016.4
20260504081229 46 246 0.0 0.0 0.00 0.00 0.00 82 1016.5
20260504080729 46 246 0.0 0.0 0.00 0.00 0.00 82 1016.5
20260504080454 46 246 0.0 0.0 0.00 0.00 0.00 81 1016.4
20260504070211 46 266 0.0 0.0 0.00 0.00 0.00 81 1016.4
20260504060154 46 266 0.0 0.0 0.00 0.00 0.00 80 1016.6
20260504050630 47 266 0.0 0.0 0.00 0.00 0.00 77 1016.7
20260504050129 47 266 0.0 0.0 0.00 0.00 0.00 77 1016.7
20260504045629 47 266 0.0 0.0 0.00 0.00 0.00 77 1016.7
20260504045347 47 266 0.0 0.0 0.00 0.00 0.00 76 1016.7
20260504044850 47 266 0.0 0.0 0.00 0.00 0.00 76 1016.7
20260504044129 47 266 0.0 0.0 0.00 0.00 0.00 77 1016.7
20260504043629 47 266 0.0 0.0 0.00 0.00 0.00 77 1016.7
20260504043128 47 266 0.0 0.0 0.00 0.00 0.00 76 1016.7
20260504042629 47 266 0.0 0.0 0.00 0.00 0.00 77 1016.8
20260504042131 47 266 0.0 0.0 0.00 0.00 0.00 76 1016.7
20260504041629 47 266 0.0 0.0 0.00 0.00 0.00 76 1016.7
20260504041129 47 266 0.0 0.0 0.00 0.00 0.00 75 1016.7
20260504040833 47 266 0.0 0.0 0.00 0.00 0.00 74 1016.6
20260504040819 47 266 0.0 0.0 0.00 0.00 0.00 74 1016.6
20260504035625 47 266 0.0 0.0 0.00 0.00 0.00 73 1016.6
20260504035123 47 266 0.0 0.0 0.00 0.00 0.00 73 1016.6
20260504034844 47 266 0.0 0.0 0.00 0.00 0.00 73 1016.7
20260504034348 48 266 0.0 0.0 0.00 0.00 0.00 73 1016.7
20260504033621 48 266 0.0 0.0 0.00 0.00 0.00 74 1016.6
20260504033120 48 266 0.0 0.0 0.00 0.00 0.00 74 1016.6
20260504032617 48 266 0.0 0.0 0.00 0.00 0.00 74 1016.6
20260504032117 48 266 0.0 0.0 0.00 0.00 0.00 74 1016.6
20260504031616 48 266 0.0 0.0 0.00 0.00 0.00 74 1016.6
20260504031115 48 266 0.0 0.0 0.00 0.00 0.00 74 1016.6
20260504030613 49 266 0.0 0.0 0.00 0.00 0.00 74 1016.5
20260504030111 49 266 0.0 0.0 0.00 0.00 0.00 74 1016.5
20260504025609 49 266 0.0 0.0 0.00 0.00 0.00 74 1016.4
20260504025108 49 266 0.0 0.0 0.00 0.00 0.00 73 1016.4
20260504024605 49 266 0.0 0.0 0.00 0.00 0.00 73 1016.4
20260504024103 49 266 0.0 0.0 0.00 0.00 0.00 72 1016.5
20260504023604 49 271 0.0 0.0 0.00 0.00 0.00 73 1016.3
20260504023103 49 308 0.0 0.0 0.00 0.00 0.00 73 1016.4
20260504022603 49 308 0.0 0.0 0.00 0.00 0.00 73 1016.5
20260504022104 49 308 0.0 0.0 0.00 0.00 0.00 72 1016.4
20260504021603 50 308 0.0 0.0 0.00 0.00 0.00 71 1016.4
20260504021101 50 308 0.0 0.0 0.00 0.00 0.00 69 1016.4
20260504020601 50 308 0.0 0.0 0.00 0.00 0.00 69 1016.4
20260504020101 50 308 0.0 0.0 0.00 0.00 0.00 70 1016.4